This demonstration page uses our WeatherBlox Daily Observations layout. Learn more.

Left ArrowRight Arrow

Hourly Observations for November 9, 2020

Temp ( °F °C ) Dew Point ( °F °C ) Humidity (%) Winds ( mph kmh ) Pressure ( in mb ) Visibility ( mi km ) Precip ( " mm )
12:54 am 00:54 Partly Cloudy 65 18.3 56 13.3 73 73 S 24 39 29.78 1009 10 16.0934 0 0
1:33 am 01:33 Mostly Cloudy 67 19.4 56 13.3 68 68 S 30 48 29.77 1008 10 16.0934 0 0
1:54 am 01:54 Cloudy 67 19.4 56 13.3 68 68 S 28 44 29.76 1008 10 16.0934 0 0
2:54 am 02:54 Cloudy 67 19.4 57 13.9 71 71 S 25 41 29.75 1008 10 16.0934 0 0
3:54 am 03:54 Cloudy 66 18.9 56 13.3 70 70 S 23 37 29.73 1007 10 16.0934 0 0
4:54 am 04:54 Cloudy 66 18.9 57 13.9 73 73 S 24 39 29.72 1007 10 16.0934 0 0
5:54 am 05:54 Cloudy 66 18.9 57 13.9 73 73 S 26 43 29.72 1007 10 16.0934 0 0
6:54 am 06:54 Cloudy 66 18.9 57 13.9 73 73 S 24 39 29.74 1007 10 16.0934 0 0
7:54 am 07:54 Cloudy 66 18.9 57 13.9 73 73 S 20 31 29.74 1007 10 16.0934 0 0
8:54 am 08:54 Cloudy with Light Rain 66 18.9 58 14.4 75 75 S 18 30 29.75 1007 10 16.0934 0.001 0.001
9:54 am 09:54 Cloudy 66 18.9 59 15 78 78 S 23 37 29.74 1007 10 16.0934 0.02 0.508
10:26 am 10:26 Partly Cloudy 67 19.4 59 15 76 76 S 23 37 29.73 1007 10 16.0934 0.001 0.001
10:54 am 10:54 Mostly Cloudy 68 20 59 15 73 73 SSW 23 37 29.75 1007 10 16.0934 0.001 0.001
11:14 am 11:14 Cloudy 68 20 59 15 73 73 S 21 33 29.75 1007 10 16.0934 0 0
11:21 am 11:21 Cloudy 68 20 59 15 73 73 SSW 18 30 29.74 1007 10 16.0934 0 0
11:40 am 11:40 Cloudy 60 15.6 52 11.1 75 75 N 21 33 29.79 1009 10 16.0934 0 0
11:49 am 11:49 Cloudy with Light Rain 48 9 45 7 87 87 NNW 20 31 29.84 1010 9 14.48406 0.001 0.001
11:54 am 11:54 Cloudy with Light Rain 47 8.3 43 6.1 86 86 NNW 25 41 29.81 1010 9 14.48406 0.001 0.001
12:01 pm 12:01 Cloudy with Light Rain 45 7.2 42 5.6 90 90 NNW 24 39 29.84 1011 9 14.48406 0.001 0.001
12:43 pm 12:43 Cloudy with Light Rain 43 6.1 39 3.9 86 86 N 17 28 29.87 1011 10 16.0934 0.001 0.001
12:54 pm 12:54 Cloudy with Light Rain 42 5.6 38 3.3 85 85 N 21 33 29.86 1011 10 16.0934 0.001 0.001
1:54 pm 13:54 Cloudy with Light Rain 39 3.9 35 1.7 86 86 N 20 31 29.87 1012 10 16.0934 0.001 0.001
2:54 pm 14:54 Cloudy 38 3.3 34 1.1 86 86 N 17 28 29.88 1012 10 16.0934 0.001 0.001
3:08 pm 15:08 Cloudy 38 3.3 34 1.1 86 86 N 20 31 29.92 1013 10 16.0934 0 0
3:32 pm 15:32 Cloudy 38 3.3 33 0.6 83 83 N 18 30 29.93 1014 10 16.0934 0 0
3:54 pm 15:54 Cloudy 37 2.8 33 0.6 86 86 N 21 33 29.91 1013 10 16.0934 0 0
4:54 pm 16:54 Cloudy 35 1.7 31 -0.6 85 85 N 18 30 29.92 1013 10 16.0934 0.001 0.001
5:54 pm 17:54 Cloudy 35 1.7 32 0 89 89 N 16 26 29.94 1014 8 12.87472 0 0
6:54 pm 18:54 Cloudy 34 1.1 31 -0.6 89 89 N 13 20 29.94 1014 10 16.0934 0 0
7:54 pm 19:54 Cloudy 34 1.1 31 -0.6 89 89 N 14 22 29.93 1014 10 16.0934 0.001 0.001
8:54 pm 20:54 Cloudy with Mist and Fog 33 0.6 30 -1.1 89 89 N 15 24 29.93 1014 6 9.65604 0 0
9:54 pm 21:54 Cloudy with Light Rain 33 0.6 30 -1.1 89 89 N 16 26 29.93 1014 3 4.82802 0.001 0.001
10:54 pm 22:54 Cloudy with Light Rain 33 0.6 30 -1.1 89 89 NNE 12 19 29.91 1013 6 9.65604 0.001 0.001
11:36 pm 23:36 Cloudy with Light Freezing Rain 32 0 30 -1.1 92 92 N 17 28 29.95 1014 5 8.0467 0.01 0.254
11:47 pm 23:47 Cloudy with Freezing Rain 33 0.6 30 -1.1 89 89 WNW 13 20 30.02 1016 2.5 4.02335 0.01 0.254
11:54 pm 23:54 Cloudy with Freezing Rain 33 0.6 30 -1.1 89 89 NNE 14 22 29.94 1014 2.5 4.02335 0.04 1.016
11:58 pm 23:58 Cloudy with Freezing Rain 32 0 30 -1.1 92 92 N 10 17 29.98 1015 4 6.43736 0.01 0.254

Powered by AerisWeather